date,time,SUV Intensity [MED/Hr],UV Index,Daily total [MED],Since Last [MED]
26/02/2022,00:05:06,-0.000,0.0,0.0,0.0
26/02/2022,00:06:15,0.000,0.0,0.0,0.0
26/02/2022,00:07:05,0.001,0.0,0.0,0.0
26/02/2022,00:08:07,0.001,0.0,0.0,0.0
26/02/2022,00:09:06,0.000,0.0,0.0,0.0
26/02/2022,00:10:07,0.001,0.0,0.0,0.0
26/02/2022,00:11:07,-0.001,0.0,0.0,0.0
26/02/2022,00:12:06,0.000,0.0,0.0,0.0
26/02/2022,00:13:07,0.000,0.0,0.0,0.0
26/02/2022,00:14:07,-0.001,0.0,0.0,0.0
26/02/2022,00:15:06,-0.000,0.0,0.0,0.0
26/02/2022,00:16:15,0.000,0.0,0.0,0.0
26/02/2022,00:17:07,0.000,0.0,0.0,0.0
26/02/2022,00:18:07,0.001,0.0,0.0,0.0
26/02/2022,00:19:07,0.000,0.0,0.0,0.0
26/02/2022,00:20:06,0.000,0.0,0.0,0.0
26/02/2022,00:21:07,0.001,0.0,0.0,0.0
26/02/2022,00:22:07,0.000,0.0,0.0,0.0
26/02/2022,00:23:06,0.000,0.0,0.0,0.0
26/02/2022,00:24:14,0.000,0.0,0.0,0.0
26/02/2022,00:25:06,0.000,0.0,0.0,0.0
26/02/2022,00:26:07,0.000,0.0,0.0,0.0
26/02/2022,00:27:15,-0.001,0.0,0.0,0.0
26/02/2022,00:28:07,0.000,0.0,0.0,0.0
26/02/2022,00:29:06,0.001,0.0,0.0,0.0
26/02/2022,00:30:15,0.000,0.0,0.0,0.0
26/02/2022,00:31:07,0.000,0.0,0.0,0.0
26/02/2022,00:32:07,0.000,0.0,0.0,0.0
26/02/2022,00:33:06,0.000,0.0,0.0,0.0
26/02/2022,00:34:07,0.000,0.0,0.0,0.0
26/02/2022,00:35:07,0.000,0.0,0.0,0.0
26/02/2022,00:36:06,0.000,0.0,0.0,0.0
26/02/2022,00:37:15,0.001,0.0,0.0,0.0
26/02/2022,00:38:06,-0.001,0.0,0.0,0.0
26/02/2022,00:39:07,0.001,0.0,0.0,0.0
26/02/2022,00:40:14,0.000,0.0,0.0,0.0
26/02/2022,00:41:14,0.001,0.0,0.0,0.0
26/02/2022,00:42:06,0.000,0.0,0.0,0.0
26/02/2022,00:43:07,0.000,0.0,0.0,0.0
26/02/2022,00:44:06,0.000,0.0,0.0,0.0
26/02/2022,00:45:06,0.000,0.0,0.0,0.0
26/02/2022,00:46:07,-0.001,0.0,0.0,0.0
26/02/2022,00:47:07,0.000,0.0,0.0,0.0
26/02/2022,00:48:15,0.001,0.0,0.0,0.0
26/02/2022,00:49:06,-0.001,0.0,0.0,0.0
26/02/2022,00:50:07,-0.001,0.0,0.0,0.0
26/02/2022,00:51:07,0.000,0.0,0.0,0.0
26/02/2022,00:52:07,0.001,0.0,0.0,0.0
26/02/2022,00:53:08,0.000,0.0,0.0,0.0
26/02/2022,00:54:06,0.000,0.0,0.0,0.0
26/02/2022,00:55:07,-0.000,0.0,0.0,0.0
26/02/2022,00:56:07,0.000,0.0,0.0,0.0
26/02/2022,00:57:07,0.000,0.0,0.0,0.0
26/02/2022,00:58:15,-0.000,0.0,0.0,0.0
26/02/2022,00:59:06,0.000,0.0,0.0,0.0
26/02/2022,01:00:07,0.000,0.0,0.0,0.0
26/02/2022,01:01:15,-0.001,0.0,0.0,0.0
26/02/2022,01:02:07,0.000,0.0,0.0,0.0
26/02/2022,01:03:07,-0.000,0.0,0.0,0.0
26/02/2022,01:04:07,-0.000,0.0,0.0,0.0
26/02/2022,01:05:07,-0.001,0.0,0.0,0.0
26/02/2022,01:06:07,0.000,0.0,0.0,0.0
26/02/2022,01:07:07,0.001,0.0,0.0,0.0
26/02/2022,01:08:07,0.000,0.0,0.0,0.0
26/02/2022,01:09:14,0.001,0.0,0.0,0.0
26/02/2022,01:10:07,0.000,0.0,0.0,0.0
26/02/2022,01:11:07,0.001,0.0,0.0,0.0
26/02/2022,01:12:15,0.001,0.0,0.0,0.0
26/02/2022,01:13:06,0.000,0.0,0.0,0.0
26/02/2022,01:14:10,0.001,0.0,0.0,0.0
26/02/2022,01:15:07,0.000,0.0,0.0,0.0
26/02/2022,01:16:07,0.001,0.0,0.0,0.0
26/02/2022,01:17:06,-0.000,0.0,0.0,0.0
26/02/2022,01:18:07,0.001,0.0,0.0,0.0
26/02/2022,01:19:07,0.001,0.0,0.0,0.0
26/02/2022,01:20:06,0.001,0.0,0.0,0.0
26/02/2022,01:21:07,0.001,0.0,0.0,0.0
26/02/2022,01:22:07,0.000,0.0,0.0,0.0
26/02/2022,01:23:07,0.001,0.0,0.0,0.0
26/02/2022,01:24:07,0.000,0.0,0.0,0.0
26/02/2022,01:25:07,0.002,0.0,0.0,0.0
26/02/2022,01:26:06,0.000,0.0,0.0,0.0
26/02/2022,01:27:07,-0.000,0.0,0.0,0.0
26/02/2022,01:28:07,0.000,0.0,0.0,0.0
26/02/2022,01:29:07,0.000,0.0,0.0,0.0
26/02/2022,01:30:15,0.000,0.0,0.0,0.0
26/02/2022,01:30:54,0.001,0.0,0.0,0.0
26/02/2022,01:32:07,0.000,0.0,0.0,0.0
26/02/2022,01:33:07,-0.001,0.0,0.0,0.0
26/02/2022,01:34:07,0.000,0.0,0.0,0.0
26/02/2022,01:35:06,0.001,0.0,0.0,0.0
26/02/2022,01:36:06,0.001,0.0,0.0,0.0
26/02/2022,01:37:07,-0.000,0.0,0.0,0.0
26/02/2022,01:38:07,0.001,0.0,0.0,0.0
26/02/2022,01:39:07,0.000,0.0,0.0,0.0
26/02/2022,01:40:07,0.001,0.0,0.0,0.0
26/02/2022,01:41:07,0.000,0.0,0.0,0.0
26/02/2022,01:42:07,0.001,0.0,0.0,0.0
26/02/2022,01:43:15,0.002,0.0,0.0,0.0
26/02/2022,01:44:06,0.000,0.0,0.0,0.0
26/02/2022,01:45:07,0.001,0.0,0.0,0.0
26/02/2022,01:46:07,0.000,0.0,0.0,0.0
26/02/2022,01:47:06,0.000,0.0,0.0,0.0
26/02/2022,01:48:07,0.001,0.0,0.0,0.0
26/02/2022,01:49:07,-0.000,0.0,0.0,0.0
26/02/2022,01:50:07,0.001,0.0,0.0,0.0
26/02/2022,01:51:06,-0.000,0.0,0.0,0.0
26/02/2022,01:52:07,0.000,0.0,0.0,0.0
26/02/2022,01:53:07,-0.000,0.0,0.0,0.0
26/02/2022,01:54:07,0.000,0.0,0.0,0.0
26/02/2022,01:55:07,0.000,0.0,0.0,0.0
26/02/2022,01:56:07,0.001,0.0,0.0,0.0
26/02/2022,01:57:07,0.000,0.0,0.0,0.0
26/02/2022,01:58:06,0.000,0.0,0.0,0.0
26/02/2022,01:59:06,0.000,0.0,0.0,0.0
26/02/2022,02:00:07,0.001,0.0,0.0,0.0
26/02/2022,02:01:15,-0.000,0.0,0.0,0.0
26/02/2022,02:02:07,0.000,0.0,0.0,0.0
26/02/2022,02:03:07,0.000,0.0,0.0,0.0
26/02/2022,02:04:15,0.001,0.0,0.0,0.0
26/02/2022,02:05:07,0.001,0.0,0.0,0.0
26/02/2022,02:06:07,0.000,0.0,0.0,0.0
26/02/2022,02:07:06,0.000,0.0,0.0,0.0
26/02/2022,02:08:07,0.001,0.0,0.0,0.0
26/02/2022,02:09:07,0.000,0.0,0.0,0.0
26/02/2022,02:10:07,0.001,0.0,0.0,0.0
26/02/2022,02:11:07,-0.000,0.0,0.0,0.0
26/02/2022,02:12:07,0.002,0.0,0.0,0.0
26/02/2022,02:13:07,-0.000,0.0,0.0,0.0
26/02/2022,02:14:07,0.002,0.0,0.0,0.0
26/02/2022,02:15:15,0.000,0.0,0.0,0.0
26/02/2022,02:16:05,0.001,0.0,0.0,0.0
26/02/2022,02:17:06,0.001,0.0,0.0,0.0
26/02/2022,02:18:16,0.001,0.0,0.0,0.0
26/02/2022,02:19:06,0.000,0.0,0.0,0.0
26/02/2022,02:20:07,0.001,0.0,0.0,0.0
26/02/2022,02:21:07,-0.000,0.0,0.0,0.0
26/02/2022,02:22:07,0.001,0.0,0.0,0.0
26/02/2022,02:23:06,0.001,0.0,0.0,0.0
26/02/2022,02:24:07,0.000,0.0,0.0,0.0
26/02/2022,02:25:07,0.001,0.0,0.0,0.0
26/02/2022,02:26:06,0.001,0.0,0.0,0.0
26/02/2022,02:27:07,0.000,0.0,0.0,0.0
26/02/2022,02:28:07,0.000,0.0,0.0,0.0
26/02/2022,02:29:06,0.000,0.0,0.0,0.0
26/02/2022,02:30:07,0.001,0.0,0.0,0.0
26/02/2022,02:31:07,0.001,0.0,0.0,0.0
26/02/2022,02:32:07,0.000,0.0,0.0,0.0
26/02/2022,02:33:07,0.000,0.0,0.0,0.0
26/02/2022,02:34:06,0.001,0.0,0.0,0.0
26/02/2022,02:35:07,0.001,0.0,0.0,0.0
26/02/2022,02:36:07,0.001,0.0,0.0,0.0
26/02/2022,02:37:06,0.001,0.0,0.0,0.0
26/02/2022,02:38:07,0.001,0.0,0.0,0.0
26/02/2022,02:39:07,0.001,0.0,0.0,0.0
26/02/2022,02:40:06,0.000,0.0,0.0,0.0
26/02/2022,02:41:07,0.000,0.0,0.0,0.0
26/02/2022,02:42:07,0.001,0.0,0.0,0.0
26/02/2022,02:43:15,0.001,0.0,0.0,0.0
26/02/2022,02:44:07,0.000,0.0,0.0,0.0
26/02/2022,02:45:07,-0.000,0.0,0.0,0.0
26/02/2022,02:46:15,0.001,0.0,0.0,0.0
26/02/2022,02:47:07,0.001,0.0,0.0,0.0
26/02/2022,02:48:07,0.000,0.0,0.0,0.0
26/02/2022,02:49:07,0.000,0.0,0.0,0.0
26/02/2022,02:50:07,0.001,0.0,0.0,0.0
26/02/2022,02:51:07,0.001,0.0,0.0,0.0
26/02/2022,02:52:07,0.001,0.0,0.0,0.0
26/02/2022,02:53:06,0.001,0.0,0.0,0.0
26/02/2022,02:54:07,0.001,0.0,0.0,0.0
26/02/2022,02:55:07,-0.000,0.0,0.0,0.0
26/02/2022,02:56:07,0.000,0.0,0.0,0.0
26/02/2022,02:57:07,0.000,0.0,0.0,0.0
26/02/2022,02:58:07,0.000,0.0,0.0,0.0
26/02/2022,02:59:07,0.000,0.0,0.0,0.0
26/02/2022,03:00:06,0.000,0.0,0.0,0.0
26/02/2022,03:01:07,0.001,0.0,0.0,0.0
26/02/2022,03:02:07,0.001,0.0,0.0,0.0
26/02/2022,03:03:07,0.001,0.0,0.0,0.0
26/02/2022,03:04:15,0.002,0.0,0.0,0.0
26/02/2022,03:05:07,0.000,0.0,0.0,0.0
26/02/2022,03:06:07,0.001,0.0,0.0,0.0
26/02/2022,03:07:07,0.001,0.0,0.0,0.0
26/02/2022,03:08:06,0.001,0.0,0.0,0.0
26/02/2022,03:09:07,0.001,0.0,0.0,0.0
26/02/2022,03:10:07,-0.000,0.0,0.0,0.0
26/02/2022,03:11:06,0.000,0.0,0.0,0.0
26/02/2022,03:12:07,0.001,0.0,0.0,0.0
26/02/2022,03:13:07,0.001,0.0,0.0,0.0
26/02/2022,03:14:06,0.001,0.0,0.0,0.0
26/02/2022,03:15:07,0.001,0.0,0.0,0.0
26/02/2022,03:16:07,-0.000,0.0,0.0,0.0
26/02/2022,03:17:07,0.000,0.0,0.0,0.0
26/02/2022,03:18:07,0.001,0.0,0.0,0.0
26/02/2022,03:19:07,0.001,0.0,0.0,0.0
26/02/2022,03:20:07,0.001,0.0,0.0,0.0
26/02/2022,03:21:07,0.002,0.0,0.0,0.0
26/02/2022,03:22:07,0.001,0.0,0.0,0.0
26/02/2022,03:23:07,0.002,0.0,0.0,0.0
26/02/2022,03:25:07,0.001,0.0,0.0,0.0
26/02/2022,03:26:07,0.000,0.0,0.0,0.0
26/02/2022,03:27:07,0.001,0.0,0.0,0.0
26/02/2022,03:28:17,0.001,0.0,0.0,0.0
26/02/2022,03:29:15,0.001,0.0,0.0,0.0
26/02/2022,03:30:07,0.001,0.0,0.0,0.0
26/02/2022,03:31:07,0.001,0.0,0.0,0.0
26/02/2022,03:32:07,0.001,0.0,0.0,0.0
26/02/2022,03:33:07,0.001,0.0,0.0,0.0
26/02/2022,03:34:07,0.001,0.0,0.0,0.0
26/02/2022,03:35:07,0.001,0.0,0.0,0.0
26/02/2022,03:36:07,0.001,0.0,0.0,0.0
26/02/2022,03:37:06,0.000,0.0,0.0,0.0
26/02/2022,03:38:07,0.000,0.0,0.0,0.0
26/02/2022,03:39:07,0.001,0.0,0.0,0.0
26/02/2022,03:40:07,0.000,0.0,0.0,0.0
26/02/2022,03:41:07,0.001,0.0,0.0,0.0
26/02/2022,03:42:07,0.002,0.0,0.0,0.0
26/02/2022,03:43:15,0.001,0.0,0.0,0.0
26/02/2022,03:44:07,0.001,0.0,0.0,0.0
26/02/2022,03:45:07,0.001,0.0,0.0,0.0
26/02/2022,03:46:07,0.001,0.0,0.0,0.0
26/02/2022,03:47:07,0.001,0.0,0.0,0.0
26/02/2022,03:48:07,0.001,0.0,0.0,0.0
26/02/2022,03:49:07,0.000,0.0,0.0,0.0
26/02/2022,03:50:07,0.001,0.0,0.0,0.0
26/02/2022,03:51:07,0.001,0.0,0.0,0.0
26/02/2022,03:52:07,0.000,0.0,0.0,0.0
26/02/2022,03:53:15,0.000,0.0,0.0,0.0
26/02/2022,03:54:07,0.001,0.0,0.0,0.0
26/02/2022,03:55:07,0.001,0.0,0.0,0.0
26/02/2022,03:56:07,0.001,0.0,0.0,0.0
26/02/2022,03:57:07,0.000,0.0,0.0,0.0
26/02/2022,03:58:07,0.001,0.0,0.0,0.0
26/02/2022,03:59:07,0.002,0.0,0.0,0.0
26/02/2022,04:00:07,0.001,0.0,0.0,0.0
26/02/2022,04:01:07,0.001,0.0,0.0,0.0
26/02/2022,04:02:07,0.000,0.0,0.0,0.0
26/02/2022,04:03:07,0.001,0.0,0.0,0.0
26/02/2022,04:04:15,0.001,0.0,0.0,0.0
26/02/2022,04:05:07,0.000,0.0,0.0,0.0
26/02/2022,04:06:09,0.001,0.0,0.0,0.0
26/02/2022,04:07:07,0.001,0.0,0.0,0.0
26/02/2022,04:08:07,0.001,0.0,0.0,0.0
26/02/2022,04:09:07,0.001,0.0,0.0,0.0
26/02/2022,04:10:07,0.001,0.0,0.0,0.0
26/02/2022,04:11:15,0.002,0.0,0.0,0.0
26/02/2022,04:12:07,0.001,0.0,0.0,0.0
26/02/2022,04:13:07,0.000,0.0,0.0,0.0
26/02/2022,04:14:08,0.001,0.0,0.0,0.0
26/02/2022,04:15:07,0.001,0.0,0.0,0.0
26/02/2022,04:16:08,0.001,0.0,0.0,0.0
26/02/2022,04:17:07,0.001,0.0,0.0,0.0
26/02/2022,04:18:07,0.002,0.0,0.0,0.0
26/02/2022,04:19:07,0.000,0.0,0.0,0.0
26/02/2022,04:20:08,0.001,0.0,0.0,0.0
26/02/2022,04:21:07,0.001,0.0,0.0,0.0
26/02/2022,04:22:16,0.001,0.0,0.0,0.0
26/02/2022,04:23:07,0.000,0.0,0.0,0.0
26/02/2022,04:24:07,0.001,0.0,0.0,0.0
26/02/2022,04:25:15,0.001,0.0,0.0,0.0
26/02/2022,04:26:07,0.001,0.0,0.0,0.0
26/02/2022,04:27:07,-0.000,0.0,0.0,0.0
26/02/2022,04:28:07,0.001,0.0,0.0,0.0
26/02/2022,04:29:07,0.001,0.0,0.0,0.0
26/02/2022,04:30:08,0.001,0.0,0.0,0.0
26/02/2022,04:31:07,0.001,0.0,0.0,0.0
26/02/2022,04:32:07,0.001,0.0,0.0,0.0
26/02/2022,04:33:07,0.001,0.0,0.0,0.0
26/02/2022,04:34:07,0.000,0.0,0.0,0.0
26/02/2022,04:35:07,0.001,0.0,0.0,0.0
26/02/2022,04:36:15,0.002,0.0,0.0,0.0
26/02/2022,04:37:07,0.001,0.0,0.0,0.0
26/02/2022,04:38:07,0.001,0.0,0.0,0.0
26/02/2022,04:39:15,0.001,0.0,0.0,0.0
26/02/2022,04:40:07,0.001,0.0,0.0,0.0
26/02/2022,04:41:07,0.001,0.0,0.0,0.0
26/02/2022,04:42:07,-0.000,0.0,0.0,0.0
26/02/2022,04:43:40,0.000,0.0,0.0,0.0
26/02/2022,04:45:07,0.000,0.0,0.0,0.0
26/02/2022,04:46:15,0.001,0.0,0.0,0.0
26/02/2022,04:47:07,0.001,0.0,0.0,0.0
26/02/2022,04:48:07,0.002,0.0,0.0,0.0
26/02/2022,04:49:07,-0.000,0.0,0.0,0.0
26/02/2022,04:50:07,0.002,0.0,0.0,0.0
26/02/2022,04:51:07,0.000,0.0,0.0,0.0
26/02/2022,04:52:07,0.002,0.0,0.0,0.0
26/02/2022,04:53:07,0.001,0.0,0.0,0.0
26/02/2022,04:54:07,0.001,0.0,0.0,0.0
26/02/2022,04:55:07,-0.000,0.0,0.0,0.0
26/02/2022,04:56:07,0.001,0.0,0.0,0.0
26/02/2022,04:57:07,0.001,0.0,0.0,0.0
26/02/2022,04:58:07,0.001,0.0,0.0,0.0
26/02/2022,04:59:07,0.002,0.0,0.0,0.0
26/02/2022,05:00:07,0.001,0.0,0.0,0.0
26/02/2022,05:01:07,0.001,0.0,0.0,0.0
26/02/2022,05:02:07,0.001,0.0,0.0,0.0
26/02/2022,05:03:08,0.001,0.0,0.0,0.0
26/02/2022,05:04:15,0.000,0.0,0.0,0.0
26/02/2022,05:05:07,0.001,0.0,0.0,0.0
26/02/2022,05:06:07,0.001,0.0,0.0,0.0
26/02/2022,05:07:08,-0.000,0.0,0.0,0.0
26/02/2022,05:08:08,0.001,0.0,0.0,0.0
26/02/2022,05:09:07,-0.000,0.0,0.0,0.0
26/02/2022,05:10:07,0.001,0.0,0.0,0.0
26/02/2022,05:11:07,0.001,0.0,0.0,0.0
26/02/2022,05:12:07,0.001,0.0,0.0,0.0
26/02/2022,05:13:07,0.001,0.0,0.0,0.0
26/02/2022,05:14:08,0.001,0.0,0.0,0.0
26/02/2022,05:15:08,0.001,0.0,0.0,0.0
26/02/2022,05:16:08,0.001,0.0,0.0,0.0
26/02/2022,05:17:08,-0.000,0.0,0.0,0.0
26/02/2022,05:18:16,-0.000,0.0,0.0,0.0
26/02/2022,05:19:07,0.000,0.0,0.0,0.0
26/02/2022,05:20:07,0.001,0.0,0.0,0.0
26/02/2022,05:21:07,0.001,0.0,0.0,0.0
26/02/2022,05:22:07,0.001,0.0,0.0,0.0
26/02/2022,05:23:07,0.001,0.0,0.0,0.0
26/02/2022,05:24:07,0.000,0.0,0.0,0.0
26/02/2022,05:25:07,0.001,0.0,0.0,0.0
26/02/2022,05:26:07,0.000,0.0,0.0,0.0
26/02/2022,05:27:07,0.001,0.0,0.0,0.0
26/02/2022,05:28:15,0.001,0.0,0.0,0.0
26/02/2022,05:29:15,0.002,0.0,0.0,0.0
26/02/2022,05:30:07,0.001,0.0,0.0,0.0
26/02/2022,05:31:07,0.001,0.0,0.0,0.0
26/02/2022,05:32:07,0.001,0.0,0.0,0.0
26/02/2022,05:33:07,0.001,0.0,0.0,0.0
26/02/2022,05:34:07,0.001,0.0,0.0,0.0
26/02/2022,05:35:07,0.001,0.0,0.0,0.0
26/02/2022,05:36:16,0.002,0.0,0.0,0.0
26/02/2022,05:37:07,0.001,0.0,0.0,0.0
26/02/2022,05:38:07,0.001,0.0,0.0,0.0
26/02/2022,05:39:07,0.002,0.0,0.0,0.0
26/02/2022,05:40:08,0.002,0.0,0.0,0.0
26/02/2022,05:41:08,0.001,0.0,0.0,0.0
26/02/2022,05:42:07,0.000,0.0,0.0,0.0
26/02/2022,05:43:07,0.000,0.0,0.0,0.0
26/02/2022,05:44:07,0.000,0.0,0.0,0.0
26/02/2022,05:45:07,0.001,0.0,0.0,0.0
26/02/2022,05:46:07,0.001,0.0,0.0,0.0
26/02/2022,05:47:07,0.000,0.0,0.0,0.0
26/02/2022,05:48:07,0.001,0.0,0.0,0.0
26/02/2022,05:49:07,0.000,0.0,0.0,0.0
26/02/2022,05:50:07,0.001,0.0,0.0,0.0
26/02/2022,05:51:07,0.002,0.0,0.0,0.0
26/02/2022,05:52:07,0.002,0.0,0.0,0.0
26/02/2022,05:53:07,0.001,0.0,0.0,0.0
26/02/2022,05:54:07,0.001,0.0,0.0,0.0
26/02/2022,05:55:07,0.001,0.0,0.0,0.0
26/02/2022,05:56:07,0.002,0.0,0.0,0.0
26/02/2022,05:57:16,0.001,0.0,0.0,0.0
26/02/2022,05:58:22,0.001,0.0,0.0,0.0
26/02/2022,06:00:08,0.002,0.0,0.0,0.0
26/02/2022,06:01:07,0.001,0.0,0.0,0.0
26/02/2022,06:02:07,0.001,0.0,0.0,0.0
26/02/2022,06:03:08,0.001,0.0,0.0,0.0
26/02/2022,06:04:07,0.001,0.0,0.0,0.0
26/02/2022,06:05:07,0.001,0.0,0.0,0.0
26/02/2022,06:06:07,0.000,0.0,0.0,0.0
26/02/2022,06:07:08,0.001,0.0,0.0,0.0
26/02/2022,06:08:07,0.001,0.0,0.0,0.0
26/02/2022,06:09:07,0.001,0.0,0.0,0.0
26/02/2022,06:10:08,0.001,0.0,0.0,0.0
26/02/2022,06:11:08,0.001,0.0,0.0,0.0
26/02/2022,06:12:07,0.001,0.0,0.0,0.0
26/02/2022,06:13:07,0.001,0.0,0.0,0.0
26/02/2022,06:14:07,0.001,0.0,0.0,0.0
26/02/2022,06:15:15,0.001,0.0,0.0,0.0
26/02/2022,06:16:07,0.001,0.0,0.0,0.0
26/02/2022,06:17:08,0.001,0.0,0.0,0.0
26/02/2022,06:18:07,0.000,0.0,0.0,0.0
26/02/2022,06:19:07,0.000,0.0,0.0,0.0
26/02/2022,06:20:07,0.000,0.0,0.0,0.0
26/02/2022,06:21:15,0.001,0.0,0.0,0.0
26/02/2022,06:22:07,0.002,0.0,0.0,0.0
26/02/2022,06:23:07,0.001,0.0,0.0,0.0
26/02/2022,06:24:07,0.001,0.0,0.0,0.0
26/02/2022,06:25:07,0.001,0.0,0.0,0.0
26/02/2022,06:26:09,0.001,0.0,0.0,0.0
26/02/2022,06:27:07,0.002,0.0,0.0,0.0
26/02/2022,06:28:07,0.002,0.0,0.0,0.0
26/02/2022,06:29:07,0.001,0.0,0.0,0.0
26/02/2022,06:30:07,0.002,0.0,0.0,0.0
26/02/2022,06:31:07,0.001,0.0,0.0,0.0
26/02/2022,06:32:08,0.001,0.0,0.0,0.0
26/02/2022,06:33:07,0.001,0.0,0.0,0.0
26/02/2022,06:34:07,0.001,0.0,0.0,0.0
26/02/2022,06:35:07,0.001,0.0,0.0,0.0
26/02/2022,06:36:08,0.001,0.0,0.0,0.0
26/02/2022,06:37:08,0.001,0.0,0.0,0.0
26/02/2022,06:38:07,0.001,0.0,0.0,0.0
26/02/2022,06:39:15,0.000,0.0,0.0,0.0
26/02/2022,06:40:07,0.001,0.0,0.0,0.0
26/02/2022,06:41:07,0.000,0.0,0.0,0.0
26/02/2022,06:42:07,0.001,0.0,0.0,0.0
26/02/2022,06:43:07,0.002,0.0,0.0,0.0
26/02/2022,06:44:07,0.001,0.0,0.0,0.0
26/02/2022,06:45:07,0.002,0.0,0.0,0.0
26/02/2022,06:46:07,0.001,0.0,0.0,0.0
26/02/2022,06:47:07,0.001,0.0,0.0,0.0
26/02/2022,06:48:07,0.002,0.0,0.0,0.0
26/02/2022,06:49:07,0.002,0.0,0.0,0.0
26/02/2022,06:50:07,0.002,0.0,0.0,0.0
26/02/2022,06:51:07,0.003,0.0,0.0,0.0
26/02/2022,06:52:07,0.002,0.0,0.0,0.0
26/02/2022,06:53:07,0.002,0.0,0.0,0.0
26/02/2022,06:54:08,0.002,0.0,0.0,0.0
26/02/2022,06:55:08,0.002,0.0,0.0,0.0
26/02/2022,06:56:06,0.003,0.0,0.0,0.0
26/02/2022,06:57:07,0.003,0.0,0.0,0.0
26/02/2022,06:58:07,0.003,0.0,0.0,0.0
26/02/2022,06:59:07,0.003,0.0,0.0,0.0
26/02/2022,07:00:16,0.003,0.0,0.0,0.0
26/02/2022,07:01:15,0.003,0.0,0.0,0.0
26/02/2022,07:02:07,0.003,0.0,0.0,0.0
26/02/2022,07:03:07,0.003,0.0,0.0,0.0
26/02/2022,07:04:07,0.004,0.0,0.0,0.0
26/02/2022,07:05:08,0.004,0.0,0.0,0.0
26/02/2022,07:06:08,0.003,0.0,0.0,0.0
26/02/2022,07:07:07,0.004,0.0,0.0,0.0
26/02/2022,07:08:16,0.005,0.0,0.0,0.0
26/02/2022,07:09:07,0.005,0.0,0.0,0.0
26/02/2022,07:10:07,0.004,0.0,0.0,0.0
26/02/2022,07:11:07,0.005,0.0,0.0,0.0
26/02/2022,07:12:08,0.005,0.0,0.0,0.0
26/02/2022,07:13:08,0.006,0.0,0.0,0.0
26/02/2022,07:14:07,0.006,0.0,0.0,0.0
26/02/2022,07:15:07,0.006,0.0,0.0,0.0
26/02/2022,07:16:08,0.007,0.0,0.0,0.0
26/02/2022,07:17:07,0.007,0.0,0.0,0.0
26/02/2022,07:18:16,0.007,0.0,0.001,0.001
26/02/2022,07:19:14,0.009,0.0,0.001,0.0
26/02/2022,07:20:07,0.009,0.0,0.001,0.0
26/02/2022,07:21:08,0.008,0.0,0.001,0.0
26/02/2022,07:22:08,0.009,0.0,0.001,0.0
26/02/2022,07:23:07,0.008,0.0,0.001,0.0
26/02/2022,07:24:07,0.009,0.0,0.001,0.0
26/02/2022,07:25:08,0.009,0.0,0.001,0.0
26/02/2022,07:26:15,0.010,0.0,0.002,0.001
26/02/2022,07:27:07,0.010,0.0,0.002,0.0
26/02/2022,07:28:07,0.011,0.0,0.002,0.0
26/02/2022,07:29:16,0.012,0.0,0.002,0.0
26/02/2022,07:30:06,0.013,0.0,0.002,0.0
26/02/2022,07:31:08,0.013,0.0,0.003,0.001
26/02/2022,07:32:08,0.014,0.0,0.003,0.0
26/02/2022,07:33:07,0.013,0.0,0.003,0.0
26/02/2022,07:34:07,0.013,0.0,0.003,0.0
26/02/2022,07:35:08,0.015,0.0,0.004,0.001
26/02/2022,07:36:07,0.015,0.0,0.004,0.0
26/02/2022,07:37:07,0.016,0.0,0.004,0.0
26/02/2022,07:38:07,0.016,0.0,0.004,0.0
26/02/2022,07:39:07,0.017,0.0,0.005,0.001
26/02/2022,07:40:08,0.018,0.0,0.005,0.0
26/02/2022,07:41:07,0.018,0.0,0.005,0.0
26/02/2022,07:42:07,0.017,0.0,0.005,0.0
26/02/2022,07:43:08,0.018,0.0,0.006,0.001
26/02/2022,07:44:07,0.020,0.0,0.006,0.0
26/02/2022,07:45:07,0.020,0.0,0.006,0.0
26/02/2022,07:46:08,0.021,0.0,0.007,0.001
26/02/2022,07:47:16,0.022,0.0,0.007,0.0
26/02/2022,07:48:07,0.022,0.0,0.007,0.0
26/02/2022,07:49:07,0.023,0.0,0.008,0.001
26/02/2022,07:50:08,0.024,0.0,0.008,0.0
26/02/2022,07:51:07,0.025,0.0,0.009,0.001
26/02/2022,07:52:07,0.026,0.0,0.009,0.0
26/02/2022,07:53:08,0.026,0.0,0.01,0.001
26/02/2022,07:54:07,0.027,0.0,0.01,0.0
26/02/2022,07:55:07,0.028,0.0,0.01,0.0
26/02/2022,07:56:08,0.028,0.0,0.011,0.001
26/02/2022,07:57:16,0.030,0.0,0.011,0.0
26/02/2022,07:58:16,0.031,0.0,0.012,0.001
26/02/2022,07:59:07,0.031,0.0,0.012,0.0
26/02/2022,08:00:07,0.032,0.0,0.013,0.001
26/02/2022,08:01:07,0.033,0.0,0.014,0.001
26/02/2022,08:02:07,0.034,0.0,0.014,0.0
26/02/2022,08:04:08,0.036,0.0,0.015,0.001
26/02/2022,08:05:15,0.038,0.0,0.016,0.001
26/02/2022,08:06:07,0.038,0.0,0.016,0.0
26/02/2022,08:07:07,0.039,0.0,0.017,0.001
26/02/2022,08:08:08,0.040,0.0,0.018,0.001
26/02/2022,08:09:08,0.041,0.0,0.018,0.0
26/02/2022,08:10:07,0.042,0.0,0.019,0.001
26/02/2022,08:11:07,0.044,0.0,0.02,0.001
26/02/2022,08:12:08,0.045,0.0,0.021,0.001
26/02/2022,08:13:08,0.046,0.0,0.021,0.0
26/02/2022,08:14:07,0.047,0.0,0.022,0.001
26/02/2022,08:15:07,0.048,0.0,0.023,0.001
26/02/2022,08:16:16,0.049,0.0,0.024,0.001
26/02/2022,08:17:06,0.050,0.0,0.025,0.001
26/02/2022,08:18:08,0.052,0.0,0.025,0.0
26/02/2022,08:19:16,0.053,0.0,0.026,0.001
26/02/2022,08:20:08,0.055,0.0,0.027,0.001
26/02/2022,08:21:07,0.056,0.0,0.028,0.001
26/02/2022,08:22:07,0.057,0.0,0.029,0.001
26/02/2022,08:23:08,0.059,0.0,0.03,0.001
26/02/2022,08:24:21,0.061,0.0,0.031,0.001
26/02/2022,08:26:08,0.063,0.0,0.033,0.002
26/02/2022,08:27:07,0.065,0.0,0.034,0.001
26/02/2022,08:28:07,0.066,0.0,0.035,0.001
26/02/2022,08:29:08,0.068,0.0,0.036,0.001
26/02/2022,08:30:07,0.069,0.0,0.038,0.002
26/02/2022,08:31:07,0.071,0.0,0.039,0.001
26/02/2022,08:32:08,0.073,0.0,0.04,0.001
26/02/2022,08:33:08,0.074,0.0,0.041,0.001
26/02/2022,08:34:07,0.076,0.0,0.042,0.001
26/02/2022,08:35:08,0.078,0.0,0.044,0.002
26/02/2022,08:36:08,0.080,0.0,0.045,0.001
26/02/2022,08:37:16,0.082,0.0,0.046,0.001
26/02/2022,08:38:06,0.083,0.0,0.048,0.002
26/02/2022,08:39:08,0.084,0.0,0.049,0.001
26/02/2022,08:40:16,0.087,0.0,0.051,0.002
26/02/2022,08:41:07,0.087,0.0,0.052,0.001
26/02/2022,08:42:07,0.089,0.0,0.053,0.001
26/02/2022,08:43:16,0.091,0.0,0.055,0.002
26/02/2022,08:44:08,0.093,0.0,0.056,0.001
26/02/2022,08:45:07,0.095,0.0,0.058,0.002
26/02/2022,08:46:07,0.096,0.0,0.06,0.002
26/02/2022,08:47:08,0.099,0.0,0.061,0.001
26/02/2022,08:48:16,0.100,0.0,0.063,0.002
26/02/2022,08:49:06,0.102,0.0,0.065,0.002
26/02/2022,08:50:08,0.104,0.0,0.066,0.001
26/02/2022,08:51:08,0.106,0.0,0.068,0.002
26/02/2022,08:52:07,0.109,0.0,0.07,0.002
26/02/2022,08:53:07,0.111,0.0,0.072,0.002
26/02/2022,08:54:07,0.114,0.0,0.074,0.002
26/02/2022,08:55:08,0.115,0.0,0.075,0.001
26/02/2022,08:56:08,0.119,0.0,0.077,0.002
26/02/2022,08:57:07,0.119,0.0,0.079,0.002
26/02/2022,08:58:15,0.122,0.0,0.082,0.003
26/02/2022,08:59:15,0.123,0.0,0.084,0.002
26/02/2022,09:00:07,0.125,0.0,0.086,0.002
26/02/2022,09:01:08,0.128,0.0,0.088,0.002
26/02/2022,09:02:08,0.130,0.0,0.09,0.002
26/02/2022,09:03:08,0.131,0.0,0.092,0.002
26/02/2022,09:04:07,0.133,0.0,0.094,0.002
26/02/2022,09:05:07,0.136,0.0,0.096,0.002
26/02/2022,09:06:08,0.139,0.0,0.099,0.003
26/02/2022,09:07:07,0.143,0.0,0.101,0.002
26/02/2022,09:08:07,0.143,0.0,0.103,0.002
26/02/2022,09:09:08,0.145,0.0,0.106,0.003
26/02/2022,09:10:08,0.147,0.0,0.108,0.002
26/02/2022,09:11:07,0.151,0.0,0.111,0.003
26/02/2022,09:12:07,0.153,0.0,0.113,0.002
26/02/2022,09:13:17,0.156,0.0,0.116,0.003
26/02/2022,09:14:06,0.158,0.0,0.118,0.002
26/02/2022,09:15:07,0.160,0.0,0.121,0.003
26/02/2022,09:16:16,0.161,0.0,0.124,0.003
26/02/2022,09:17:06,0.164,0.0,0.126,0.002
26/02/2022,09:18:08,0.164,0.0,0.129,0.003
26/02/2022,09:19:16,0.167,0.0,0.132,0.003
26/02/2022,09:20:08,0.170,0.0,0.135,0.003
26/02/2022,09:21:08,0.173,0.0,0.138,0.003
26/02/2022,09:22:09,0.175,0.0,0.141,0.003
26/02/2022,09:23:08,0.176,0.0,0.143,0.002
26/02/2022,09:24:07,0.179,0.0,0.146,0.003
26/02/2022,09:25:07,0.182,0.0,0.149,0.003
26/02/2022,09:26:07,0.184,0.0,0.152,0.003
26/02/2022,09:27:16,0.187,0.0,0.156,0.004
26/02/2022,09:28:08,0.190,0.0,0.159,0.003
26/02/2022,09:29:07,0.192,0.0,0.162,0.003
26/02/2022,09:30:07,0.195,0.0,0.165,0.003
26/02/2022,09:31:08,0.197,0.0,0.168,0.003
26/02/2022,09:32:08,0.201,0.0,0.172,0.004
26/02/2022,09:33:09,0.203,0.0,0.175,0.003
26/02/2022,09:34:08,0.207,0.0,0.179,0.004
26/02/2022,09:35:08,0.210,0.0,0.182,0.003
26/02/2022,09:36:08,0.210,0.0,0.185,0.003
26/02/2022,09:37:16,0.215,0.0,0.19,0.005
26/02/2022,09:38:07,0.216,0.0,0.193,0.003
26/02/2022,09:39:07,0.218,1.0,0.196,0.003
26/02/2022,09:40:08,0.219,1.0,0.2,0.004
26/02/2022,09:41:08,0.222,1.0,0.204,0.004
26/02/2022,09:42:07,0.228,1.0,0.207,0.003
26/02/2022,09:43:07,0.231,1.0,0.211,0.004
26/02/2022,09:44:08,0.234,1.0,0.215,0.004
26/02/2022,09:45:16,0.237,1.0,0.219,0.004
26/02/2022,09:46:08,0.240,1.0,0.223,0.004
26/02/2022,09:47:07,0.244,1.0,0.227,0.004
26/02/2022,09:48:15,0.247,1.0,0.232,0.005
26/02/2022,09:49:07,0.250,1.0,0.235,0.003
26/02/2022,09:50:08,0.254,1.0,0.239,0.004
26/02/2022,09:51:07,0.257,1.0,0.244,0.005
26/02/2022,09:52:07,0.260,1.0,0.248,0.004
26/02/2022,09:53:08,0.262,1.0,0.252,0.004
26/02/2022,09:54:08,0.266,1.0,0.257,0.005
26/02/2022,09:55:07,0.268,1.0,0.261,0.004
26/02/2022,09:56:09,0.272,1.0,0.266,0.005
26/02/2022,09:57:07,0.275,1.0,0.27,0.004
26/02/2022,09:58:08,0.279,1.0,0.275,0.005
26/02/2022,09:59:16,0.282,1.0,0.28,0.005
26/02/2022,10:00:07,0.286,1.0,0.284,0.004
26/02/2022,10:01:07,0.289,1.0,0.289,0.005
26/02/2022,10:02:08,0.292,1.0,0.294,0.005
26/02/2022,10:03:08,0.292,1.0,0.299,0.005
26/02/2022,10:04:09,0.301,1.0,0.303,0.004
26/02/2022,10:05:07,0.304,1.0,0.309,0.006
26/02/2022,10:06:08,0.306,1.0,0.314,0.005
26/02/2022,10:07:08,0.310,1.0,0.319,0.005
26/02/2022,10:08:07,0.314,1.0,0.324,0.005
26/02/2022,10:09:15,0.318,1.0,0.33,0.006
26/02/2022,10:10:15,0.319,1.0,0.335,0.005
26/02/2022,10:11:07,0.325,1.0,0.34,0.005
26/02/2022,10:12:08,0.328,1.0,0.345,0.005
26/02/2022,10:13:07,0.333,1.0,0.351,0.006
26/02/2022,10:14:07,0.335,1.0,0.356,0.005
26/02/2022,10:15:07,0.339,1.0,0.362,0.006
26/02/2022,10:16:09,0.342,1.0,0.368,0.006
26/02/2022,10:17:16,0.347,1.0,0.374,0.006
26/02/2022,10:18:06,0.351,1.0,0.379,0.005
26/02/2022,10:19:08,0.354,1.0,0.385,0.006
26/02/2022,10:20:08,0.357,1.0,0.391,0.006